User: anonymous   Login
Location: Stara Lesna
(49.1528°N, 20.2911°E)
Time: 13:45:42
(UTC+02:00)
Language:

Cosmos 1725 Rocket - Orbit

View from above orbital plane
View from above orbital plane
View from above satellite
View from above satellite

Ground track
Ground track

The orbit data is extracted from the following two-line orbital elements,

1 16494U 86005B   20270.50558045  .00000146  00000-0  13287-3 0  9991
2 16494  82.9280 261.1984 0020756 127.1252 344.1510 13.76509266742631
Epoch (UTC): 26 September 2020 12:08:02
Eccentricity: 0.0020756
inclination: 82.9280°
perigee height: 961 km
apogee height: 991 km
right ascension of ascending node: 261.1984°
argument of perigee: 127.1252°
revolutions per day: 13.76509266
mean anomaly at epoch: 344.1510°
orbit number at epoch: 74263

The dashed part of the orbit path shows where the satellite is in the earth's shadow,  

DLR